| time (UTC) | temp F | wind direction | speed MPH | gust MPH | rain 1hr in | rain 24hr in | rain mn in | humidity % | barometer mb |
| 20260903081450 | 83 | 292 | 2.0 | 3.0 | 0.00 | 0.00 | 0.00 | 36 | 1020.2 |
| 20260903075950 | 82 | 315 | 2.0 | 3.0 | 0.00 | 0.00 | 0.00 | 36 | 1020.5 |
| 20260903074450 | 81 | 315 | 2.0 | 3.0 | 0.00 | 0.00 | 0.00 | 37 | 1020.4 |
| 20260903072951 | 79 | 315 | 2.0 | 3.0 | 0.00 | 0.00 | 0.00 | 38 | 1020.6 |
| 20260903071449 | 78 | 315 | 3.0 | 3.0 | 0.00 | 0.00 | 0.00 | 38 | 1020.2 |
| 20260903065950 | 77 | 315 | 1.0 | 3.0 | 0.00 | 0.00 | 0.00 | 38 | 1020.1 |
| 20260903064450 | 77 | 315 | 2.0 | 3.0 | 0.00 | 0.00 | 0.00 | 39 | 1020.1 |
| 20260903062950 | 75 | 315 | 1.0 | 1.0 | 0.00 | 0.00 | 0.00 | 40 | 1019.8 |
| 20260903061451 | 75 | 315 | 0.0 | 1.0 | 0.00 | 0.00 | 0.00 | 40 | 1019.7 |
| 20260903055949 | 75 | 315 | 0.0 | 2.0 | 0.00 | 0.00 | 0.00 | 41 | 1019.6 |
| 20260903054449 | 75 | 315 | 0.0 | 1.0 | 0.00 | 0.00 | 0.00 | 41 | 1019.3 |
| 20260903052950 | 75 | 315 | 1.0 | 1.0 | 0.00 | 0.00 | 0.00 | 41 | 1019.4 |
| 20260903051449 | 74 | 315 | 1.0 | 1.0 | 0.00 | 0.00 | 0.00 | 43 | 1019.1 |
| 20260903045950 | 75 | 315 | 0.0 | 2.0 | 0.00 | 0.00 | 0.00 | 41 | 1019.0 |
| 20260903044450 | 75 | 315 | 0.0 | 2.0 | 0.00 | 0.00 | 0.00 | 40 | 1018.8 |
| 20260903042949 | 76 | 315 | 0.0 | 2.0 | 0.00 | 0.00 | 0.00 | 40 | 1018.9 |
| 20260903041450 | 75 | 315 | 0.0 | 1.0 | 0.00 | 0.00 | 0.00 | 40 | 1019.1 |
| 20260903035949 | 77 | 315 | 1.0 | 2.0 | 0.00 | 0.00 | 0.00 | 39 | 1018.7 |
| 20260903034450 | 76 | 315 | 1.0 | 2.0 | 0.00 | 0.00 | 0.00 | 39 | 1018.7 |
| 20260903032949 | 77 | 315 | 1.0 | 2.0 | 0.00 | 0.00 | 0.00 | 38 | 1018.8 |
| 20260903031448 | 77 | 315 | 0.0 | 1.0 | 0.00 | 0.00 | 0.00 | 37 | 1019.0 |
| 20260903025949 | 77 | 315 | 0.0 | 1.0 | 0.00 | 0.00 | 0.00 | 38 | 1019.0 |
| 20260903024450 | 76 | 315 | 1.0 | 1.0 | 0.00 | 0.00 | 0.00 | 40 | 1018.9 |
| 20260903022949 | 77 | 315 | 0.0 | 2.0 | 0.00 | 0.00 | 0.00 | 39 | 1018.9 |
| 20260903021449 | 78 | 315 | 0.0 | 0.0 | 0.00 | 0.00 | 0.00 | 38 | 1019.0 |
| 20260903015949 | 77 | 315 | 0.0 | 0.0 | 0.00 | 0.00 | 0.00 | 38 | 1019.1 |
| 20260903014450 | 78 | 315 | 0.0 | 1.0 | 0.00 | 0.00 | 0.00 | 37 | 1019.1 |
| 20260903012949 | 77 | 315 | 1.0 | 2.0 | 0.00 | 0.00 | 0.00 | 38 | 1019.0 |
| 20260903011448 | 79 | 315 | 0.0 | 2.0 | 0.00 | 0.00 | 0.00 | 36 | 1019.1 |
| 20260903005949 | 79 | 315 | 0.0 | 2.0 | 0.00 | 0.00 | 0.00 | 36 | 1019.4 |
| 20260903004449 | 79 | 315 | 0.0 | 1.0 | 0.00 | 0.00 | 0.00 | 36 | 1019.4 |
| 20260903002949 | 80 | 315 | 0.0 | 3.0 | 0.00 | 0.00 | 0.00 | 35 | 1019.5 |
| 20260903001448 | 79 | 292 | 1.0 | 3.0 | 0.00 | 0.00 | 0.00 | 36 | 1019.3 |
| 20260902235948 | 79 | 292 | 0.0 | 2.0 | 0.00 | 0.00 | 0.00 | 36 | 1019.3 |
| 20260902234447 | 79 | 315 | 2.0 | 2.0 | 0.00 | 0.00 | 0.00 | 36 | 1019.4 |
| 20260902232949 | 79 | 315 | 2.0 | 3.0 | 0.00 | 0.00 | 0.00 | 37 | 1019.3 |
| 20260902231447 | 79 | 315 | 3.0 | 3.0 | 0.00 | 0.00 | 0.00 | 36 | 1019.6 |
| 20260902225949 | 79 | 315 | 3.0 | 4.0 | 0.00 | 0.00 | 0.00 | 36 | 1019.6 |
| 20260902224449 | 79 | 315 | 2.0 | 4.0 | 0.00 | 0.00 | 0.00 | 37 | 1019.4 |
| 20260902222949 | 79 | 315 | 2.0 | 4.0 | 0.00 | 0.00 | 0.00 | 36 | 1018.9 |
| 20260902221448 | 80 | 315 | 3.0 | 4.0 | 0.00 | 0.00 | 0.00 | 36 | 1019.2 |
| 20260902215947 | 80 | 315 | 2.0 | 3.0 | 0.00 | 0.00 | 0.00 | 36 | 1019.2 |
| 20260902214447 | 80 | 292 | 2.0 | 3.0 | 0.00 | 0.00 | 0.00 | 37 | 1019.1 |
| 20260902212947 | 80 | 315 | 2.0 | 3.0 | 0.00 | 0.00 | 0.00 | 36 | 1019.2 |
| 20260902211448 | 81 | 315 | 2.0 | 3.0 | 0.00 | 0.00 | 0.00 | 35 | 1019.4 |
| 20260902205947 | 82 | 315 | 2.0 | 3.0 | 0.00 | 0.00 | 0.00 | 35 | 1019.3 |
| 20260902204447 | 82 | 315 | 2.0 | 3.0 | 0.00 | 0.00 | 0.00 | 34 | 1019.2 |
| 20260902202947 | 83 | 315 | 2.0 | 4.0 | 0.00 | 0.00 | 0.00 | 34 | 1019.0 |
| 20260902201447 | 84 | 315 | 2.0 | 3.0 | 0.00 | 0.00 | 0.00 | 35 | 1018.7 |
| 20260902195948 | 84 | 315 | 2.0 | 4.0 | 0.00 | 0.00 | 0.00 | 36 | 1018.8 |
| 20260902194446 | 85 | 292 | 1.0 | 2.0 | 0.00 | 0.00 | 0.00 | 35 | 1018.6 |
| 20260902192948 | 84 | 158 | 0.0 | 1.0 | 0.00 | 0.00 | 0.00 | 34 | 1018.4 |
| 20260902191448 | 84 | 158 | 0.0 | 1.0 | 0.00 | 0.00 | 0.00 | 33 | 1018.3 |
| 20260902185946 | 86 | 158 | 0.0 | 1.0 | 0.00 | 0.00 | 0.00 | 30 | 1018.2 |
| 20260902184446 | 89 | 158 | 0.0 | 1.0 | 0.00 | 0.00 | 0.00 | 29 | 1018.2 |
| 20260902182947 | 91 | 158 | 0.0 | 1.0 | 0.00 | 0.00 | 0.00 | 27 | 1018.4 |
| 20260902181447 | 92 | 158 | 0.0 | 2.0 | 0.00 | 0.00 | 0.00 | 26 | 1018.1 |
| 20260902175946 | 93 | 158 | 0.0 | 2.0 | 0.00 | 0.00 | 0.00 | 26 | 1018.0 |
| 20260902174447 | 93 | 202 | 0.0 | 2.0 | 0.00 | 0.00 | 0.00 | 25 | 1018.1 |
| 20260902172946 | 93 | 112 | 1.0 | 3.0 | 0.00 | 0.00 | 0.00 | 24 | 1017.9 |
| 20260902171445 | 93 | 135 | 1.0 | 3.0 | 0.00 | 0.00 | 0.00 | 24 | 1018.1 |
| 20260902165947 | 94 | 202 | 3.0 | 3.0 | 0.00 | 0.00 | 0.00 | 24 | 1018.1 |
| 20260902164446 | 94 | 90 | 3.0 | 6.0 | 0.00 | 0.00 | 0.00 | 24 | 1018.2 |
| 20260902162945 | 95 | 202 | 1.0 | 6.0 | 0.00 | 0.00 | 0.00 | 22 | 1018.4 |
| 20260902161446 | 95 | 202 | 1.0 | 6.0 | 0.00 | 0.00 | 0.00 | 25 | 1018.2 |
| 20260902155946 | 93 | 292 | 3.0 | 9.0 | 0.00 | 0.00 | 0.00 | 27 | 1018.5 |
| 20260902154446 | 93 | 292 | 4.0 | 6.0 | 0.00 | 0.00 | 0.00 | 26 | 1018.2 |
| 20260902152945 | 93 | 270 | 0.0 | 8.0 | 0.00 | 0.00 | 0.00 | 29 | 1018.6 |
| 20260902151446 | 94 | 225 | 2.0 | 8.0 | 0.00 | 0.00 | 0.00 | 28 | 1018.4 |
| 20260902145945 | 94 | 248 | 0.0 | 8.0 | 0.00 | 0.00 | 0.00 | 28 | 1018.5 |
| 20260902144445 | 93 | 292 | 3.0 | 6.0 | 0.00 | 0.00 | 0.00 | 30 | 1018.5 |
| 20260902142946 | 92 | 158 | 3.0 | 6.0 | 0.00 | 0.00 | 0.00 | 32 | 1018.6 |
| 20260902141446 | 94 | 270 | 0.0 | 8.0 | 0.00 | 0.00 | 0.00 | 30 | 1018.6 |
| 20260902135946 | 92 | 158 | 2.0 | 6.0 | 0.00 | 0.00 | 0.00 | 33 | 1018.8 |
| 20260902134445 | 90 | 158 | 0.0 | 6.0 | 0.00 | 0.00 | 0.00 | 34 | 1019.0 |
| 20260902132946 | 90 | 135 | 3.0 | 6.0 | 0.00 | 0.00 | 0.00 | 36 | 1019.0 |
| 20260902131445 | 91 | 158 | 2.0 | 8.0 | 0.00 | 0.00 | 0.00 | 35 | 1019.3 |
| 20260902125946 | 89 | 135 | 3.0 | 8.0 | 0.00 | 0.00 | 0.00 | 37 | 1019.2 |
| 20260902124446 | 88 | 180 | 2.0 | 11.0 | 0.00 | 0.00 | 0.00 | 36 | 1019.1 |
| 20260902122945 | 88 | 158 | 3.0 | 10.0 | 0.00 | 0.00 | 0.00 | 39 | 1019.5 |
| 20260902121445 | 88 | 270 | 3.0 | 11.0 | 0.00 | 0.00 | 0.00 | 39 | 1019.4 |
| 20260902115944 | 88 | 158 | 2.0 | 6.0 | 0.00 | 0.00 | 0.00 | 37 | 1019.6 |
| 20260902114445 | 88 | 158 | 3.0 | 4.0 | 0.00 | 0.00 | 0.00 | 34 | 1019.9 |
| 20260902112945 | 85 | 158 | 3.0 | 8.0 | 0.00 | 0.00 | 0.00 | 36 | 1020.1 |
| 20260902111445 | 87 | 158 | 3.0 | 6.0 | 0.00 | 0.00 | 0.00 | 34 | 1020.2 |
| 20260902105945 | 87 | 180 | 3.0 | 6.0 | 0.00 | 0.00 | 0.00 | 34 | 1020.1 |
| 20260902104444 | 86 | 202 | 3.0 | 8.0 | 0.00 | 0.00 | 0.00 | 32 | 1020.0 |
| 20260902102944 | 85 | 158 | 2.0 | 6.0 | 0.00 | 0.00 | 0.00 | 34 | 1019.9 |
| 20260902101445 | 86 | 180 | 1.0 | 4.0 | 0.00 | 0.00 | 0.00 | 35 | 1019.7 |
| 20260902095943 | 85 | 158 | 0.0 | 6.0 | 0.00 | 0.00 | 0.00 | 39 | 1019.7 |
| 20260902094444 | 84 | 292 | 0.0 | 4.0 | 0.00 | 0.00 | 0.00 | 38 | 1019.7 |
| 20260902092944 | 83 | 158 | 0.0 | 6.0 | 0.00 | 0.00 | 0.00 | 40 | 1019.4 |
| 20260902091443 | 83 | 158 | 0.0 | 4.0 | 0.00 | 0.00 | 0.00 | 41 | 1019.4 |
| 20260902085943 | 82 | 112 | 0.0 | 2.0 | 0.00 | 0.00 | 0.00 | 46 | 1019.4 |
| 20260902084444 | 82 | 112 | 0.0 | 3.0 | 0.00 | 0.00 | 0.00 | 49 | 1019.2 |
| 20260902082944 | 80 | 135 | 0.0 | 3.0 | 0.00 | 0.00 | 0.00 | 53 | 1019.3 |